STARLINK-5615 (55425 NORAD) Tracking and Keplerian Element Data

This shows tracking and keplerian element data for the satellite.

Feedback or suggestion? Click here.




ElementValue
Catalog55425
NameSTARLINK-5615
Epoch Orbit1517
Epoch Day127.25001157
Epoch Year2023
RAAN182.1837
Inclination69.999
Eccentricity0.0003459
Argument of Perigee269.1904
Mean Anonmoly112.7701
Mean Motion15.41346649
Decay Rate-0.00965245
L11 55425U 23014AL 23127.25001157 -.00965245 00000+0 -25223-1 0 9994
L22 55425 69.9990 182.1837 0003459 269.1904 112.7701 15.41346649 15173



Live tracking and technical data element details for STARLINK-5615 (NORAD 55425). STARLINK-5615 can be tracked NOW for your location showing map with azimuth and elevation plus other details from your city location.







IsCatalogInMostPopularTable: catalog: 55425, numindb: -1

Insert: records affected: 1


GetName: 55425 STARLINK-5615

Hit Count: inserted at: Mon, 05 Jun 2023 19:44:46 GMT